Location: PACMO
(41.3967°N, 90.3760°W)
Time: 01:14:43
(UTC-05:00)

NOAA 19 - Visible Passes

Search period start: 29 May 2015 00:00
Search period end: 08 June 2015 00:00
Orbit: 843 x 862 km, 99.0° (Epoch: 28 May)

Date Brightness Start Highest point End Pass type
(mag) Time Alt. Az. Time Alt. Az. Time Alt. Az.
29 May 5.8 03:09:55 10° NNE 03:15:17 51° E 03:18:44 22° SSE visible
29 May 6.6 04:51:25 10° NNW 04:55:42 23° WNW 04:59:51 10° WSW visible
30 May 6.2 02:58:49 10° NNE 03:04:00 40° E 03:07:22 20° SSE visible
30 May 6.4 04:39:54 10° N 04:44:34 28° WNW 04:49:07 10° WSW visible
31 May 6.5 02:47:47 10° NNE 02:52:40 32° E 02:56:01 18° SSE visible
31 May 6.1 04:28:27 10° N 04:33:25 35° WNW 04:38:04 11° SW visible
01 Jun 6.9 02:36:51 10° NE 02:41:19 26° E 02:44:40 15° SE visible
01 Jun 5.8 04:17:03 10° N 04:22:15 43° WNW 04:26:42 13° SW visible
02 Jun 7.2 02:26:00 10° NE 02:29:56 20° E 02:33:18 13° SE visible
02 Jun 5.5 04:05:42 10° N 04:11:04 53° WNW 04:15:21 16° SW visible
03 Jun 7.4 02:15:20 10° NE 02:18:32 16° E 02:21:57 10° SE visible
03 Jun 5.3 03:54:22 10° N 03:59:52 67° WNW 04:03:59 18° SSW visible
04 Jun 7.6 02:05:03 10° ENE 02:07:06 12° E 02:09:30 10° ESE visible
04 Jun 5.2 03:43:06 10° NNE 03:48:39 83° WNW 03:52:37 19° SSW visible
05 Jun 5.3 03:31:52 10° NNE 03:37:24 79° ESE 03:41:15 20° S visible
06 Jun 5.5 03:20:40 10° NNE 03:26:08 63° E 03:29:53 20° S visible
07 Jun 5.9 03:09:31 10° NNE 03:14:51 50° E 03:18:31 20° SSE visible
07 Jun 6.6 04:50:59 10° NNW 04:55:17 23° WNW 04:59:27 10° WSW visible
